Regional Weather Roundup
Issued by NWS

Home | Current Version | Previous Version | Text Only | Print | Product List | Glossary Off
Versions: 1 2 3 4 5 6 7 8 9 10 11 12 13 14 15 16 17 18 19 20 21 22 23 24 25 26 27 28 29 30 31 32 33 34 35 36 37 38 39 40 41 42 43 44 45 46 47 48 49 50

000
ASUS43 KBIS 030602
RWRND

NORTH DAKOTA REGIONAL WEATHER ROUNDUP
NATIONAL WEATHER SERVICE BISMARCK ND
100 AM CDT TUE MAY 03 2016

NOTE: "FAIR" INDICATES FEW OR NO CLOUDS BELOW 12,000 FEET WITH NO
SIGNIFICANT WEATHER AND/OR OBSTRUCTIONS TO VISIBILITY.


NDZ001>003-009>011-017-030700-
NORTHWEST NORTH DAKOTA

CITY           SKY/WX    TMP DP  RH WIND       PRES   REMARKS
WILLISTON      CLEAR     41  35  79 CALM      30.02S
6HR MIN TEMP:  41; 6HR MAX TEMP:  73;

MINOT          MOCLDY    55  37  50 SW7       29.98S
$$

NDZ018>021-031>035-040>046-030700-
SOUTHWEST NORTH DAKOTA

CITY           SKY/WX    TMP DP  RH WIND       PRES   REMARKS
BISMARCK       CLOUDY    45  42  89 CALM      30.02F
6HR MIN TEMP:  44; 6HR MAX TEMP:  64;

DICKINSON      PTCLDY    42  31  64 SW3       30.01F
GARRISON         N/A     50  36  58 CALM      30.00S
6HR MIN TEMP:  48; 6HR MAX TEMP:  67;

HETTINGER ARPT CLEAR     32  29  88 W3        30.05S
$$

NDZ004>008-012>016-024-026-027-054-030700-
NORTHEAST NORTH DAKOTA

CITY           SKY/WX    TMP DP  RH WIND       PRES   REMARKS
GRAND FORKS    CLOUDY    53  38  56 W10       29.94F
GRND FRKS AFB  CLOUDY    54  36  50 W12       29.95F
DEVILS LAKE    CLOUDY    51  40  65 SW9       29.98F
$$

NDZ022-023-025-028>030-036>039-047>053-030700-
SOUTHEAST NORTH DAKOTA

CITY           SKY/WX    TMP DP  RH WIND       PRES   REMARKS
FARGO          CLOUDY    50  35  56 W6        29.97S
6HR MIN TEMP:  50; 6HR MAX TEMP:  69;

JAMESTOWN      CLOUDY    42  37  82 CALM      29.99F
$$





USA.gov is the U.S. government's official web portal to all federal, state and local government web resources and services.